Weather History for Farmville, VA

Change the Weather History Date:

Friday, March 1, 2013

  Actual Average Record
Temperature  
Mean Temperature 38 °F -  
Max Temperature 44 °F 55 °F 80 °F (1976)
Min Temperature 33 °F 29 °F 10 °F (1934)
Degree Days  
Heating Degree Days 26    
Moisture  
Dew Point 24 °F    
Average Humidity 54    
Maximum Humidity 70    
Minimum Humidity 39    
Precipitation  
Precipitation 0.00 in - - ()
Sea Level Pressure  
Sea Level Pressure 29.83 in    
Wind  
Wind Speed 3 mph (West)    
Max Wind Speed 6 mph    
Max Gust Speed -    
Visibility 10 miles    
Events      
Averages and records for this station are not official NWS values.
T = Trace of Precipitation, MM = Missing Value Source: NWS Daily Summary

Daily Weather History Graph

Daily Weather History Graph

Search for Another Location

Airport:

Trip Planner

Search our weather history database for the weather conditions in past years. The results will help you decide how hot, cold, wet, or windy it might be!

Date:

Astronomy

Mar. 01, 2013 Rise Set
Actual Time 6:44 AM EST 6:07 PM EST
Civil Twilight 6:18 AM EST 6:34 PM EST
Nautical Twilight 5:48 AM EST 7:04 PM EST
Astronomical Twilight 5:18 AM EST 7:34 PM EST
Moon 10:32 PM EST (3/1) 8:36 AM EST (3/1)
Length of Visible Light 12h 15m
Length of Day
11h 23m
Waning Gibbous, 83% of the Moon is Illuminated
Mar 1
Waning Gibbous
Mar 4
Last Quarter
Mar 11
New
Mar 19
First Quarter
Mar 27
Full

Hourly Weather History & Observations

Time (EST) Temp. Windchill Dew Point Humidity Pressure Visibility Wind Dir Wind Speed Gust Speed Precip Events Conditions
12:15 AM 35.6 °F 30.7 °F 24.8 °F 65% 29.78 in 10.0 mi SW 5.8 mph - N/A   Mostly Cloudy
12:35 AM 37.4 °F 32.8 °F 24.8 °F 60% 29.78 in 10.0 mi WSW 5.8 mph - N/A   Overcast
12:55 AM 35.6 °F 30.7 °F 24.8 °F 65% 29.78 in 10.0 mi WSW 5.8 mph - N/A   Overcast
1:15 AM 37.4 °F 32.8 °F 24.8 °F 60% 29.78 in 10.0 mi SW 5.8 mph - N/A   Mostly Cloudy
1:35 AM 37.4 °F 33.8 °F 24.8 °F 60% 29.78 in 10.0 mi SW 4.6 mph - N/A   Overcast
2:15 AM 37.4 °F 32.8 °F 24.8 °F 60% 29.77 in 10.0 mi WSW 5.8 mph - N/A   Scattered Clouds
2:35 AM 35.6 °F 31.7 °F 24.8 °F 65% 29.78 in 10.0 mi WSW 4.6 mph - N/A   Scattered Clouds
3:15 AM 35.6 °F 31.7 °F 23.0 °F 60% 29.77 in 10.0 mi WSW 4.6 mph - N/A   Clear
3:35 AM 33.8 °F 28.6 °F 24.8 °F 70% 29.77 in 10.0 mi WSW 5.8 mph - N/A   Clear
3:55 AM 35.6 °F 31.7 °F 24.8 °F 65% 29.78 in 10.0 mi SW 4.6 mph - N/A   Scattered Clouds
4:55 AM 35.6 °F 31.7 °F 24.8 °F 65% 29.79 in 10.0 mi SW 4.6 mph - N/A   Overcast
5:15 AM 35.6 °F 30.7 °F 24.8 °F 65% 29.80 in 10.0 mi WSW 5.8 mph - N/A   Overcast
5:35 AM 35.6 °F 32.8 °F 24.8 °F 65% 29.80 in 10.0 mi SW 3.5 mph - N/A   Overcast
5:55 AM 35.6 °F 32.8 °F 26.6 °F 70% 29.80 in 10.0 mi South 3.5 mph - N/A   Overcast
6:15 AM 35.6 °F 31.7 °F 24.8 °F 65% 29.81 in 10.0 mi WSW 4.6 mph - N/A   Overcast
6:35 AM 35.6 °F 32.8 °F 24.8 °F 65% 29.81 in 10.0 mi WSW 3.5 mph - N/A   Overcast
7:15 AM 35.6 °F - 24.8 °F 65% 29.83 in 10.0 mi Calm Calm - N/A   Overcast
7:35 AM 35.6 °F - 26.6 °F 70% 29.83 in 10.0 mi Calm Calm - N/A   Overcast
7:55 AM 37.4 °F 33.8 °F 24.8 °F 60% 29.84 in 10.0 mi WSW 4.6 mph - N/A   Overcast
8:15 AM 37.4 °F - 24.8 °F 60% 29.83 in 10.0 mi Calm Calm - N/A   Overcast
8:35 AM 37.4 °F - 26.6 °F 65% 29.84 in 10.0 mi Calm Calm - N/A   Overcast
8:55 AM 39.2 °F - 26.6 °F 61% 29.84 in 10.0 mi Calm Calm - N/A   Overcast
9:15 AM 39.2 °F - 26.6 °F 61% 29.84 in 10.0 mi Calm Calm - N/A   Overcast
9:35 AM 39.2 °F - 26.6 °F 61% 29.85 in 10.0 mi Calm Calm - N/A   Overcast
9:55 AM 39.2 °F - 26.6 °F 61% 29.84 in 10.0 mi Calm Calm - N/A   Overcast
10:15 AM 41.0 °F - 26.6 °F 57% 29.84 in 10.0 mi Calm Calm - N/A   Overcast
10:35 AM 42.8 °F - 26.6 °F 53% 29.84 in 10.0 mi Calm Calm - N/A   Overcast
11:15 AM 42.8 °F 41.1 °F 26.6 °F 53% 29.85 in 10.0 mi NW 3.5 mph - N/A   Overcast
11:35 AM 44.6 °F 42.2 °F 24.8 °F 46% 29.84 in 10.0 mi NNW 4.6 mph - N/A   Overcast
11:55 AM 44.6 °F 42.2 °F 24.8 °F 46% 29.84 in 10.0 mi North 4.6 mph - N/A   Overcast
12:15 PM 44.6 °F 41.4 °F 24.8 °F 46% 29.84 in 10.0 mi North 5.8 mph - N/A   Overcast
12:35 PM 44.6 °F 42.2 °F 24.8 °F 46% 29.84 in 10.0 mi North 4.6 mph - N/A   Overcast
1:15 PM 44.6 °F - 24.8 °F 46% 29.83 in 10.0 mi Calm Calm - N/A   Overcast
1:35 PM 44.6 °F 42.2 °F 23.0 °F 43% 29.82 in 10.0 mi NW 4.6 mph - N/A   Overcast
1:55 PM 44.6 °F 42.2 °F 23.0 °F 43% 29.82 in 10.0 mi NNW 4.6 mph - N/A   Overcast
2:15 PM 44.6 °F - 23.0 °F 43% 29.81 in 10.0 mi Calm Calm - N/A   Overcast
2:35 PM 44.6 °F 43.1 °F 23.0 °F 43% 29.81 in 10.0 mi North 3.5 mph - N/A   Overcast
2:55 PM 44.6 °F - 23.0 °F 43% 29.81 in 10.0 mi Calm Calm - N/A   Overcast
3:15 PM 44.6 °F - 23.0 °F 43% 29.81 in 10.0 mi Calm Calm - N/A   Overcast
3:35 PM 44.6 °F - 21.2 °F 39% 29.81 in 10.0 mi Calm Calm - N/A   Overcast
4:15 PM 44.6 °F - 21.2 °F 39% 29.82 in 10.0 mi Calm Calm - N/A   Overcast
4:35 PM 44.6 °F - 21.2 °F 39% 29.82 in 10.0 mi Calm Calm - N/A   Overcast
4:55 PM 44.6 °F 43.1 °F 23.0 °F 43% 29.82 in 10.0 mi North 3.5 mph - N/A   Overcast
5:15 PM 44.6 °F - 21.2 °F 39% 29.82 in 10.0 mi Calm Calm - N/A   Overcast
5:35 PM 42.8 °F - 21.2 °F 42% 29.83 in 10.0 mi Calm Calm - N/A   Overcast
5:55 PM 42.8 °F - 23.0 °F 46% 29.83 in 10.0 mi Calm Calm - N/A   Overcast
6:15 PM 42.8 °F - 24.8 °F 49% 29.84 in 10.0 mi Calm Calm - N/A   Overcast
6:35 PM 42.8 °F - 24.8 °F 49% 29.84 in 10.0 mi Calm Calm - N/A   Overcast
6:55 PM 41.0 °F - 24.8 °F 53% 29.85 in 10.0 mi Calm Calm - N/A   Overcast
7:15 PM 42.8 °F - 21.2 °F 42% 29.86 in 10.0 mi Calm Calm - N/A   Overcast
7:35 PM 42.8 °F 41.1 °F 23.0 °F 46% 29.87 in 10.0 mi North 3.5 mph - N/A   Overcast
7:55 PM 41.0 °F - 24.8 °F 53% 29.87 in 10.0 mi Calm Calm - N/A   Overcast
8:15 PM 41.0 °F - 23.0 °F 49% 29.87 in 10.0 mi Calm Calm - N/A   Overcast
8:35 PM 41.0 °F - 24.8 °F 53% 29.88 in 10.0 mi Calm Calm - N/A   Overcast
8:55 PM 39.2 °F - 23.0 °F 52% 29.88 in 10.0 mi Calm Calm - N/A   Overcast
9:15 PM 39.2 °F - 23.0 °F 52% 29.88 in 10.0 mi Calm Calm - N/A   Overcast
9:35 PM 39.2 °F - 23.0 °F 52% 29.89 in 10.0 mi Calm Calm - N/A   Overcast
9:55 PM 39.2 °F - 24.8 °F 56% 29.89 in 10.0 mi Calm Calm - N/A   Overcast
10:15 PM 39.2 °F - 24.8 °F 56% 29.89 in 10.0 mi Calm Calm - N/A   Overcast
10:35 PM 39.2 °F - 24.8 °F 56% 29.89 in 10.0 mi Calm Calm - N/A   Overcast
10:55 PM 39.2 °F - 23.0 °F 52% 29.89 in 10.0 mi Calm Calm - N/A   Overcast
11:15 PM 39.2 °F - 23.0 °F 52% 29.88 in 10.0 mi Calm Calm - N/A   Overcast
11:35 PM 39.2 °F - 23.0 °F 52% 29.89 in 10.0 mi Calm Calm - N/A   Overcast
11:55 PM 39.2 °F - 21.2 °F 49% 29.88 in 10.0 mi Calm Calm - N/A   Overcast